This demonstration page uses our WeatherBlox Daily Observations layout. Learn more.

Left ArrowRight Arrow

Hourly Observations for February 1, 2015

Temp ( °F °C ) Dew Point ( °F °C ) Humidity (%) Winds ( mph kmh ) Pressure ( in mb ) Visibility ( mi km ) Precip ( " mm )
12:53 am 00:53 Clear 42 5.6 34 1.1 73 73 Calm 30.04 1017 10 16 0.00 0.00
1:53 am 01:53 Clear 40 4.4 34 1.1 79 79 S 5 7 30.06 1018 10 16 0.00 0.00
2:53 am 02:53 Clear 38 3.3 34 1.1 86 86 E 3 6 30.08 1019 10 16 0.00 0.00
3:53 am 03:53 Clear 41 5 34 1.1 76 76 N 5 7 30.09 1019 10 16 0.00 0.00
4:53 am 04:53 Clear 41 5 34 1.1 76 76 N 3 6 30.11 1020 10 16 0.00 0.00
5:53 am 05:53 Clear 40 4.4 34 1.1 79 79 Calm 30.13 1020 10 16 0.00 0.00
6:53 am 06:53 Clear 42 5.6 35 1.7 76 76 Calm 30.15 1021 10 16 0.00 0.00
7:53 am 07:53 Sunny 42 5.6 35 1.7 76 76 Calm 30.15 1021 10 16 0.00 0.00
8:53 am 08:53 Sunny 47 8.3 37 2.8 69 69 W 3 6 30.17 1022 10 16 0.00 0.00
9:53 am 09:53 Sunny 47 8.3 39 3.9 74 74 ESE 3 6 30.19 1022 10 16 0.00 0.00
10:53 am 10:53 Sunny 52 11.1 39 3.9 61 61 Calm 30.20 1023 10 16 0.00 0.00
11:53 am 11:53 Sunny 59 15 42 5.6 54 54 Calm 30.19 1022 10 16 0.00 0.00
12:53 pm 12:53 Sunny 60 15.6 45 7.2 58 58 Calm 30.17 1022 10 16 0.00 0.00
1:53 pm 13:53 Sunny 62 16.7 45 7.2 54 54 ESE 5 7 30.14 1021 10 16 0.00 0.00
2:53 pm 14:53 Mostly Sunny 62 16.7 44 6.7 52 52 Calm 30.14 1021 10 16 0.00 0.00
3:53 pm 15:53 Mostly Sunny 63 17.2 44 6.7 50 50 Calm 30.12 1020 10 16 0.00 0.00
4:53 pm 16:53 Sunny 62 16.7 44 6.7 52 52 NNE 3 6 30.12 1020 6 10 0.00 0.00
5:53 pm 17:53 Clear 56 13.3 45 7.2 67 67 Calm 30.14 1021 10 16 0.00 0.00
6:53 pm 18:53 Partly Cloudy 56 13.3 44 6.7 65 65 NE 3 6 30.16 1021 10 16 0.00 0.00
7:53 pm 19:53 Partly Cloudy 52 11.1 44 6.7 75 75 Calm 30.16 1021 10 16 0.00 0.00
8:53 pm 20:53 Mostly Cloudy 50 10 44 6.7 80 80 Calm 30.17 1022 10 16 0.00 0.00
9:53 pm 21:53 Mostly Cloudy 50 10 44 6.7 80 80 N 3 6 30.18 1022 10 16 0.00 0.00
10:53 pm 22:53 Clear 52 11.1 44 6.7 75 75 N 6 9 30.19 1022 10 16 0.00 0.00
11:53 pm 23:53 Mostly Cloudy 50 10 45 7.2 83 83 NW 3 6 30.17 1022 10 16 0.00 0.00

Powered by AerisWeather